TimeEST,TemperatureF,Dew PointF,Humidity,Sea Level PressureIn,VisibilityMPH,Wind Direction,Wind SpeedMPH,Gust SpeedMPH,PrecipitationIn,Events,Conditions,WindDirDegrees,DateUTC
12:16 AM,37.2,29.1,73,30.21,10.0,SSE,4.6,-,N/A,,Clear,160,2013-11-21 05:16:00
12:36 AM,36.9,29.3,74,30.21,10.0,SSE,4.6,-,N/A,,Clear,150,2013-11-21 05:36:00
12:56 AM,36.9,29.1,74,30.21,10.0,SSE,5.8,-,N/A,,Clear,150,2013-11-21 05:56:00
1:16 AM,36.5,28.6,73,30.20,10.0,SSE,6.9,-,N/A,,Clear,150,2013-11-21 06:16:00
1:37 AM,36.5,28.2,72,30.20,10.0,SSE,4.6,-,N/A,,Clear,150,2013-11-21 06:37:00
1:56 AM,36.1,28.2,73,30.20,10.0,SE,4.6,-,N/A,,Clear,140,2013-11-21 06:56:00
2:16 AM,36.1,28.2,73,30.20,10.0,SE,4.6,-,N/A,,Clear,130,2013-11-21 07:16:00
2:36 AM,36.0,28.2,73,30.19,10.0,SE,4.6,-,N/A,,Clear,130,2013-11-21 07:36:00
2:56 AM,36.5,28.4,72,30.19,10.0,Calm,Calm,-,N/A,,Clear,0,2013-11-21 07:56:00
3:16 AM,36.5,28.4,72,30.19,10.0,SE,3.5,-,N/A,,Clear,140,2013-11-21 08:16:00
3:36 AM,36.5,28.4,72,30.19,10.0,SSE,3.5,-,N/A,,Clear,160,2013-11-21 08:36:00
3:56 AM,37.0,28.4,71,30.19,10.0,SSE,4.6,-,N/A,,Clear,160,2013-11-21 08:56:00
4:16 AM,37.2,29.3,73,30.18,10.0,SSE,3.5,-,N/A,,Clear,150,2013-11-21 09:16:00
4:36 AM,37.0,29.3,74,30.18,10.0,SSE,4.6,-,N/A,,Scattered Clouds,150,2013-11-21 09:36:00
4:56 AM,36.9,29.1,74,30.17,10.0,SSE,3.5,-,N/A,,Mostly Cloudy,150,2013-11-21 09:56:00
5:16 AM,36.5,28.9,74,30.17,10.0,SE,4.6,-,N/A,,Mostly Cloudy,140,2013-11-21 10:16:00
5:36 AM,36.9,28.4,71,30.18,10.0,SSE,3.5,-,N/A,,Overcast,160,2013-11-21 10:36:00
5:56 AM,36.7,28.8,73,30.18,10.0,Calm,Calm,-,N/A,,Overcast,0,2013-11-21 10:56:00
6:16 AM,36.5,29.1,75,30.17,10.0,Calm,Calm,-,N/A,,Overcast,0,2013-11-21 11:16:00
6:36 AM,37.0,29.1,73,30.17,10.0,Calm,Calm,-,N/A,,Overcast,0,2013-11-21 11:36:00
6:56 AM,36.9,29.3,74,30.17,10.0,Calm,Calm,-,N/A,,Overcast,0,2013-11-21 11:56:00
7:16 AM,36.9,29.3,74,30.17,10.0,SSE,4.6,-,N/A,,Overcast,150,2013-11-21 12:16:00
7:36 AM,37.4,29.7,74,30.18,10.0,South,3.5,-,N/A,,Overcast,180,2013-11-21 12:36:00
7:56 AM,36.9,30.2,77,30.17,10.0,SSE,4.6,-,N/A,,Mostly Cloudy,150,2013-11-21 12:56:00
8:16 AM,37.0,30.2,76,30.18,10.0,SSE,4.6,-,N/A,,Mostly Cloudy,160,2013-11-21 13:16:00
8:36 AM,37.4,31.1,78,30.18,10.0,South,4.6,-,N/A,,Mostly Cloudy,170,2013-11-21 13:36:00
8:56 AM,37.4,30.9,77,30.18,10.0,SSE,5.8,-,N/A,,Overcast,150,2013-11-21 13:56:00
9:16 AM,37.8,31.1,77,30.18,10.0,SSE,5.8,-,N/A,,Overcast,160,2013-11-21 14:16:00
9:36 AM,37.9,31.8,79,30.18,10.0,SSE,5.8,-,N/A,,Overcast,160,2013-11-21 14:36:00
9:56 AM,38.5,32.0,78,30.18,10.0,SSE,5.8,-,N/A,,Overcast,160,2013-11-21 14:56:00
10:16 AM,38.5,32.2,78,30.19,10.0,South,5.8,-,N/A,,Overcast,180,2013-11-21 15:16:00
10:36 AM,39.2,32.9,78,30.20,10.0,South,5.8,-,N/A,,Overcast,170,2013-11-21 15:36:00
10:56 AM,39.4,33.6,80,30.19,10.0,South,5.8,-,N/A,,Mostly Cloudy,180,2013-11-21 15:56:00
11:16 AM,39.9,34.0,79,30.18,10.0,South,3.5,-,N/A,,Mostly Cloudy,170,2013-11-21 16:16:00
11:36 AM,40.6,34.7,79,30.18,10.0,South,4.6,-,N/A,,Mostly Cloudy,190,2013-11-21 16:36:00
11:56 AM,41.2,35.1,79,30.18,10.0,SSW,3.5,-,N/A,,Mostly Cloudy,200,2013-11-21 16:56:00
12:16 PM,41.9,35.6,78,30.17,10.0,SSW,4.6,-,N/A,,Mostly Cloudy,210,2013-11-21 17:16:00
12:36 PM,41.9,35.6,78,30.17,10.0,SSW,3.5,-,N/A,,Mostly Cloudy,210,2013-11-21 17:36:00
12:56 PM,41.9,35.8,79,30.17,10.0,SSW,4.6,-,N/A,,Overcast,200,2013-11-21 17:56:00
1:16 PM,41.9,35.8,79,30.16,10.0,South,4.6,-,N/A,,Overcast,190,2013-11-21 18:16:00
1:36 PM,41.9,35.8,79,30.16,10.0,Calm,Calm,-,N/A,,Overcast,0,2013-11-21 18:36:00
1:56 PM,42.1,36.0,79,30.15,10.0,SSE,3.5,-,N/A,,Overcast,160,2013-11-21 18:56:00
2:16 PM,42.1,35.8,78,30.15,10.0,Calm,Calm,-,N/A,,Overcast,0,2013-11-21 19:16:00
2:36 PM,41.9,35.6,78,30.15,10.0,Calm,Calm,-,N/A,,Mostly Cloudy,0,2013-11-21 19:36:00
2:56 PM,41.9,35.1,77,30.15,10.0,SSE,3.5,-,N/A,,Mostly Cloudy,150,2013-11-21 19:56:00
3:16 PM,41.9,34.9,76,30.15,10.0,Calm,Calm,-,N/A,,Mostly Cloudy,0,2013-11-21 20:16:00
3:36 PM,41.9,35.2,77,30.15,10.0,Calm,Calm,-,N/A,,Mostly Cloudy,0,2013-11-21 20:36:00
3:56 PM,41.9,35.4,78,30.16,10.0,Calm,Calm,-,N/A,,Mostly Cloudy,0,2013-11-21 20:56:00
4:16 PM,41.9,35.2,77,30.17,10.0,Calm,Calm,-,N/A,,Overcast,0,2013-11-21 21:16:00
4:36 PM,41.9,35.1,77,30.16,10.0,Calm,Calm,-,N/A,,Overcast,0,2013-11-21 21:36:00
4:56 PM,41.5,35.1,78,30.15,10.0,Calm,Calm,-,N/A,,Overcast,0,2013-11-21 21:56:00
5:16 PM,41.7,35.2,78,30.17,10.0,Calm,Calm,-,N/A,,Overcast,0,2013-11-21 22:16:00
5:36 PM,41.2,35.2,79,30.16,10.0,Calm,Calm,-,N/A,,Overcast,0,2013-11-21 22:36:00
5:56 PM,41.2,35.2,79,30.17,10.0,Calm,Calm,-,N/A,,Mostly Cloudy,0,2013-11-21 22:56:00
6:16 PM,40.6,35.6,82,30.18,10.0,Calm,Calm,-,N/A,,Overcast,0,2013-11-21 23:16:00
6:36 PM,40.1,35.6,84,30.17,10.0,Calm,Calm,-,N/A,,Overcast,0,2013-11-21 23:36:00
6:56 PM,40.5,35.6,83,30.17,10.0,Calm,Calm,-,N/A,,Overcast,0,2013-11-21 23:56:00
7:16 PM,40.5,35.8,83,30.17,10.0,Calm,Calm,-,N/A,,Overcast,0,2013-11-22 00:16:00
7:36 PM,40.6,36.0,83,30.17,10.0,Calm,Calm,-,N/A,,Overcast,0,2013-11-22 00:36:00
7:56 PM,40.1,36.0,85,30.17,10.0,North,3.5,-,N/A,,Overcast,360,2013-11-22 00:56:00
8:16 PM,40.3,35.8,84,30.17,10.0,Calm,Calm,-,N/A,,Overcast,0,2013-11-22 01:16:00
8:36 PM,40.3,35.8,84,30.16,10.0,Calm,Calm,-,N/A,,Overcast,0,2013-11-22 01:36:00
8:56 PM,40.3,36.1,85,30.17,10.0,Calm,Calm,-,N/A,,Overcast,0,2013-11-22 01:56:00
9:16 PM,40.6,36.9,86,30.17,3.0,Calm,Calm,-,N/A,,Overcast,0,2013-11-22 02:16:00
9:36 PM,39.4,36.9,91,30.17,2.0,Calm,Calm,-,N/A,,Overcast,0,2013-11-22 02:36:00
9:56 PM,39.2,37.0,92,30.16,1.5,Calm,Calm,-,N/A,,Overcast,0,2013-11-22 02:56:00
10:17 PM,41.0,38.3,90,30.17,1.5,Calm,Calm,-,N/A,,Overcast,0,2013-11-22 03:17:00
10:36 PM,40.5,38.1,91,30.17,1.8,West,3.5,-,N/A,,Overcast,270,2013-11-22 03:36:00
10:56 PM,40.3,38.1,92,30.17,2.0,West,4.6,-,N/A,Rain,Light Rain,270,2013-11-22 03:56:00
11:16 PM,40.1,38.3,93,30.16,2.5,WNW,3.5,-,N/A,Rain,Light Rain,290,2013-11-22 04:16:00
11:36 PM,40.1,38.3,93,30.16,1.8,NW,3.5,-,N/A,,Unknown,310,2013-11-22 04:36:00
11:56 PM,40.1,38.3,93,30.16,2.5,NNW,5.8,-,N/A,Rain,Light Rain,330,2013-11-22 04:56:00